Regional Weather Roundup
Issued by NWS

Home | Current Version | Previous Version | Text Only | Print | Product List | Glossary On
Versions: 1 2 3 4 5 6 7 8 9 10 11 12 13 14 15 16 17 18 19 20 21 22 23 24 25 26 27 28 29 30 31 32 33 34 35 36 37 38 39 40 41 42 43 44 45 46 47 48 49 50
000
ASUS43 KDTX 020201
RWRMI
MICHIGAN HOURLY REGIONAL WEATHER ROUNDUP
NATIONAL WEATHER SERVICE DETROIT/PONTIAC MI
1000 PM EDT FRI AUG 01 2014

NOTE: "FAIR" INDICATES FEW OR NO CLOUDS BELOW 12,000 FEET WITH NO
SIGNIFICANT WEATHER AND/OR OBSTRUCTION TO VISIBILITY.

MIZ047>049-052>055-059>063-066>070-074>076-081>083-020300-
SOUTHEAST LOWER MICHIGAN

CITY           SKY/WX    TMP DP  RH WIND       PRES   REMARKS
ADRIAN         PTCLDY    68  63  84 CALM      30.11R
ALMA           MOCLDY    64  58  80 CALM      30.10R
ANN ARBOR      PTCLDY    72  59  63 N5        30.10R
BAD AXE        CLOUDY    67  64  90 CALM      30.12R
CARO           CLOUDY    69  63  80 CALM      30.10S
DETROIT CITY   PTCLDY    76  60  57 CALM      30.10R
DETROIT        MOCLDY    73  61  65 CALM      30.10R
FLINT          CLOUDY    69  59  70 SE5       30.10S
GROSSE ILE     PTCLDY    70  64  83 CALM      30.09R
HILLSDALE      MOCLDY    69  64  84 CALM      30.12S
HOWELL         CLOUDY    65  57  74 S5        30.10S

CITY           SKY/WX    TMP DP  RH WIND       PRES   REMARKS
JACKSON        PTCLDY    66  59  78 CALM      30.12R
LAMBERTVILLE   PTCLDY    68  61  77 CALM      30.11R
LANSING        MOCLDY    62  55  77 CALM      30.10R
LAPEER         FAIR      66  64  91 CALM      30.11S
MASON          MOCLDY    63  61  93 CALM      30.09F
MONROE         PTCLDY    66  63  88 CALM      30.09R
PONTIAC        CLOUDY    71  61  70 SE3       30.10S
PORT HOPE        N/A     68  64  87 SE6       30.10S
PORT HURON     MOCLDY    64  63  94 CALM      30.11R
TRI CITIES     CLOUDY    68  63  84 E3        30.10S
TROY           PTCLDY    73  60  63 CALM      30.11R
SAGINAW HB     CLOUDY    68  61  77 CALM      30.09S
$$
MIZ043>046-050>051-056>058-064>065-071>073-077>080-020300-
SOUTHWEST LOWER MICHIGAN

CITY           SKY/WX    TMP DP  RH WIND       PRES   REMARKS
BATTLE CREEK   PTCLDY    68  57  68 S3        30.11F
BENTON HARBOR  PTCLDY    63  60  90 CALM      30.10S
BIG RAPIDS     PTCLDY    67  62  82 W5        30.11R
COLDWATER      MOCLDY    69  64  82 N3        30.11S
FREMONT        FAIR      67  60  78 W5        30.09S
HOLLAND        CLEAR     66  59  78 W3        30.10S
GRAND RAPIDS   PTCLDY    68  58  70 SW6       30.10R
IONIA          FAIR      62  61  97 S3        30.09R
KALAMAZOO      PTCLDY    65  60  84 CALM      30.11R
LUDINGTON      MOCLDY    65  59  79 S3        30.10S
MARSHALL       PTCLDY    62  56  81 CALM      30.11R
MOUNT PLEASANT PTCLDY    68  56  67 CALM      30.10R
MUSKEGON       MOCLDY    66  59  78 SW5       30.10S
SOUTH HAVEN    CLEAR     64  64  97 CALM      30.10S
$$
MIZ016>042-020300-
NORTHERN LOWER MICHIGAN

CITY           SKY/WX    TMP DP  RH WIND       PRES   REMARKS
ALPENA         MOCLDY    62  58  86 CALM      30.13R
BEAVER ISLAND  PTCLDY    65  60  84 E5        30.12R
BELLAIRE       MOCLDY    66  60  79 CALM      30.08R
CADILLAC       PTCLDY    61  58  90 CALM      30.12R
CHARLEVOIX     MOCLDY    68  56  64 E5        30.13R
FRANKFORT      MOCLDY    62  57  83 CALM      30.10R
GAYLORD        MOCLDY    68  56  65 VRB3      30.12R
GRAYLING       LGT RAIN  64  58  79 CALM      30.13S
HARBOR SPRINGS MOCLDY    68  54  61 NE7       30.11R
HOUGHTON LAKE  PTCLDY    65  61  87 CALM      30.11S
MANISTEE       MOCLDY    64  57  77 CALM      30.10S
OSCODA         PTCLDY    65  63  93 E3        30.11R
PELLSTON       MOCLDY    61  55  81 CALM      30.12R
ROGERS CITY    PTCLDY    64  57  77 S3        30.13R
TRAVERSE CITY  MOCLDY    67  56  67 CALM      30.08R
$$
MIZ007>008-015-020300-
EASTERN UPPER MICHIGAN

CITY           SKY/WX    TMP DP  RH WIND       PRES   REMARKS
KINROSS        CLEAR     61  54  77 N5        30.12R
MACKINAC ISLAN CLEAR     63  54  72 NE6       30.12R
NEWBERRY       CLEAR     59  52  79 NE3       30.12R
S. S. MARIE    CLEAR     59  51  75 W3        30.12R
MUNISING         N/A     61  54  77 CALM      30.11R
$$
MIZ004>006-011>014-085-020300-
CENTRAL UPPER MICHIGAN

CITY           SKY/WX    TMP DP  RH WIND       PRES   REMARKS
MANISTIQUE     PTCLDY    61  53  76 N5        30.10R
ESCANABA       PTCLDY    63  57  82 CALM      30.10R
MENOMINEE      PTCLDY    70  63  78 SE7       30.07R
SAWYER-GWINN   PTCLDY    59  52  77 CALM      30.13R
$$
MIZ001>003-009>011-084-020300-
WESTERN UPPER MICHIGAN

CITY           SKY/WX    TMP DP  RH WIND       PRES   REMARKS
IRON MOUNTAIN  PTCLDY    68  55  63 NE6       30.09R
HOUGHTON       CLEAR     56  49  77 NE6       30.11R
COPPER HARBOR    N/A     59  51  75 W10       30.09S
$$

ABBREVIATIONS USED IN REMARKS
   TC - TEMPERATURE IN CELSIUS
  WCI - WIND CHILL INDEX
   HX - HEAT INDEX
  VSB - VISIBILITY




USA.gov is the U.S. government's official web portal to all federal, state and local government web resources and services.